User: anonymous   Login
Location: ???????
(55.4362°N, 38.1183°E)
Time: 18:41:56
(UTC+00:00)
Language:

Cosmos 1825 Rocket - Orbit

View from above orbital plane
View from above orbital plane
View from above satellite
View from above satellite

Ground track
Ground track

The orbit data is extracted from the following two-line orbital elements,

1 17567U 87024B   21265.50091865  .00000116  00000-0  11119-4 0  9992
2 17567  82.5321 180.3480 0017738 242.9853 116.9552 14.83821383867531
Epoch (UTC): 22 September 2021 12:01:19
Eccentricity: 0.0017738
inclination: 82.5321°
perigee height: 605 km
apogee height: 630 km
right ascension of ascending node: 180.3480°
argument of perigee: 242.9853°
revolutions per day: 14.83821383
mean anomaly at epoch: 116.9552°
orbit number at epoch: 86753

The dashed part of the orbit path shows where the satellite is in the earth's shadow,  

DLR